PHDRT EGEI-EGPE

Flight info

Callsign PHDRT
Flight time 0h 39m
Altitude 3000
Route 571633N053057W 5716N0530W DCT 5709N0509W DCT 5712N0436W 5728N0413W DCT 5732N0402W 573233N040251W
Aircraft PA24/L-SDGRY/S

Departure

Time 2026-05-07 15:26
Airport Broadford Airstrip (EGEI)

Arrival

Time 2026-05-07 16:05
Airport Inverness Airport (EGPE)
Time Latitude Longitude Altitude Speed Heading
2026-05-07 15:09 57.25370 -5.82342 37 ft 0 kts 63°
2026-05-07 15:18 57.25383 -5.82353 37 ft 6 kts 274°
2026-05-07 15:18 57.25384 -5.82404 36 ft 5 kts 315°
2026-05-07 15:19 57.25413 -5.82418 35 ft 5 kts 40°
2026-05-07 15:19 57.25432 -5.82373 35 ft 3 kts 59°
2026-05-07 15:19 57.25459 -5.82287 36 ft 0 kts 69°
2026-05-07 15:19 57.25459 -5.82286 36 ft 0 kts 70°
2026-05-07 15:20 57.25461 -5.82274 36 ft 0 kts 75°
2026-05-07 15:20 57.25467 -5.82245 36 ft 7 kts 67°
2026-05-07 15:20 57.25483 -5.82180 34 ft 3 kts 313°
2026-05-07 15:21 57.25485 -5.82188 37 ft 0 kts 253°
2026-05-07 15:25 57.25483 -5.82196 34 ft 5 kts 254°
2026-05-07 15:25 57.25427 -5.82392 35 ft 45 kts 231°
2026-05-07 15:25 57.25274 -5.83081 172 ft 62 kts 238°
2026-05-07 15:25 57.25045 -5.83752 379 ft 65 kts 216°
2026-05-07 15:26 57.24716 -5.84249 566 ft 63 kts 215°
2026-05-07 15:26 57.24336 -5.84780 729 ft 70 kts 216°
2026-05-07 15:26 57.23888 -5.85106 913 ft 78 kts 173°
2026-05-07 15:26 57.23560 -5.84315 1156 ft 91 kts 98°
2026-05-07 15:27 57.23951 -5.83244 1331 ft 116 kts 47°
2026-05-07 15:27 57.24632 -5.82503 1708 ft 110 kts 27°
2026-05-07 15:27 57.25392 -5.81908 1978 ft 124 kts 19°
2026-05-07 15:27 57.26159 -5.81277 2366 ft 121 kts 25°
2026-05-07 15:28 57.26871 -5.80401 2656 ft 124 kts 49°
2026-05-07 15:28 57.27356 -5.79153 3025 ft 119 kts 65°
2026-05-07 15:28 57.27768 -5.77738 3242 ft 128 kts 84°
2026-05-07 15:28 57.27795 -5.76090 3322 ft 137 kts 111°
2026-05-07 15:29 57.27649 -5.74365 3526 ft 132 kts 116°
2026-05-07 15:29 57.27403 -5.72608 3389 ft 151 kts 120°
2026-05-07 15:29 57.27046 -5.70744 3336 ft 155 kts 126°
2026-05-07 15:29 57.26626 -5.68960 3396 ft 148 kts 129°
2026-05-07 15:30 57.26264 -5.67142 3209 ft 156 kts 116°
2026-05-07 15:30 57.26135 -5.65177 3176 ft 157 kts 102°
2026-05-07 15:30 57.26276 -5.63253 3492 ft 146 kts 89°
2026-05-07 15:30 57.26554 -5.61444 3765 ft 138 kts 83°
2026-05-07 15:31 57.26898 -5.59900 4161 ft 132 kts 78°
2026-05-07 15:31 57.27274 -5.58285 4346 ft 143 kts 77°
2026-05-07 15:31 57.27687 -5.56690 4770 ft 132 kts 70°
2026-05-07 15:31 57.28203 -5.55183 4940 ft 146 kts 65°
2026-05-07 15:32 57.28758 -5.53646 5309 ft 139 kts 61°
2026-05-07 15:32 57.29424 -5.52306 5502 ft 151 kts 44°
2026-05-07 15:32 57.30327 -5.51315 5858 ft 145 kts 23°
2026-05-07 15:32 57.31223 -5.50456 6118 ft 149 kts 36°
2026-05-07 15:33 57.31805 -5.48878 6322 ft 150 kts 81°
2026-05-07 15:33 57.31815 -5.47076 6657 ft 131 kts 115°
2026-05-07 15:33 57.31551 -5.45537 6868 ft 126 kts 131°
2026-05-07 15:33 57.31019 -5.44360 7068 ft 112 kts 157°
2026-05-07 15:34 57.30370 -5.43515 6943 ft 118 kts 162°
2026-05-07 15:34 57.29640 -5.42772 6900 ft 117 kts 165°
2026-05-07 15:34 57.28939 -5.42119 6942 ft 112 kts 170°
2026-05-07 15:34 57.28187 -5.41677 6853 ft 113 kts 179°
2026-05-07 15:35 57.27441 -5.41476 6907 ft 105 kts 188°
2026-05-07 15:35 57.26705 -5.41497 6903 ft 106 kts 191°
2026-05-07 15:35 57.25977 -5.41531 6906 ft 105 kts 188°
2026-05-07 15:35 57.25233 -5.41558 6865 ft 107 kts 191°
2026-05-07 15:36 57.24511 -5.41729 6900 ft 104 kts 196°
2026-05-07 15:36 57.23780 -5.41747 6918 ft 111 kts 175°
2026-05-07 15:36 57.23078 -5.41036 6910 ft 122 kts 151°
2026-05-07 15:36 57.22524 -5.39789 6879 ft 130 kts 131°
2026-05-07 15:37 57.22238 -5.38143 6873 ft 138 kts 114°
2026-05-07 15:37 57.22094 -5.36301 6752 ft 150 kts 109°
2026-05-07 15:37 57.22076 -5.34358 6584 ft 157 kts 102°
2026-05-07 15:37 57.22089 -5.32324 6558 ft 155 kts 101°
2026-05-07 15:38 57.22075 -5.30325 6526 ft 160 kts 103°
2026-05-07 15:38 57.21936 -5.28283 6548 ft 157 kts 115°
2026-05-07 15:38 57.21487 -5.26552 6544 ft 145 kts 141°
2026-05-07 15:38 57.20780 -5.25303 6535 ft 136 kts 152°
2026-05-07 15:39 57.20049 -5.24285 6555 ft 131 kts 155°
2026-05-07 15:39 57.19385 -5.23067 6342 ft 139 kts 141°
2026-05-07 15:39 57.18802 -5.21655 6264 ft 141 kts 140°
2026-05-07 15:39 57.18141 -5.20155 5804 ft 162 kts 139°
2026-05-07 15:40 57.17453 -5.18555 5732 ft 158 kts 138°
2026-05-07 15:40 57.16731 -5.16865 5193 ft 173 kts 137°
2026-05-07 15:40 57.16122 -5.15058 5169 ft 163 kts 124°
2026-05-07 15:40 57.15743 -5.13052 4992 ft 172 kts 117°
2026-05-07 15:41 57.15435 -5.10853 4770 ft 180 kts 111°
2026-05-07 15:41 57.15413 -5.08529 4551 ft 185 kts 91°
2026-05-07 15:41 57.15679 -5.06180 4391 ft 188 kts 85°
2026-05-07 15:41 57.15976 -5.03853 4239 ft 187 kts 84°
2026-05-07 15:42 57.16311 -5.01513 4047 ft 190 kts 82°
2026-05-07 15:42 57.16687 -4.99162 3889 ft 191 kts 80°
2026-05-07 15:42 57.17118 -4.96865 3650 ft 190 kts 75°
2026-05-07 15:42 57.17644 -4.94664 3616 ft 178 kts 72°
2026-05-07 15:43 57.18122 -4.92682 3770 ft 168 kts 74°
2026-05-07 15:43 57.18609 -4.90590 3460 ft 183 kts 74°
2026-05-07 15:43 57.19094 -4.88484 3554 ft 173 kts 74°
2026-05-07 15:43 57.19549 -4.86459 3436 ft 175 kts 74°
2026-05-07 15:44 57.20020 -4.84341 3317 ft 178 kts 74°
2026-05-07 15:44 57.20493 -4.82252 3332 ft 174 kts 75°
2026-05-07 15:44 57.20955 -4.80207 3387 ft 167 kts 75°
2026-05-07 15:44 57.21394 -4.78295 3489 ft 162 kts 75°
2026-05-07 15:45 57.21859 -4.76316 3339 ft 170 kts 74°
2026-05-07 15:45 57.22261 -4.74309 3458 ft 165 kts 82°
2026-05-07 15:45 57.22565 -4.72276 3425 ft 164 kts 88°
2026-05-07 15:45 57.22638 -4.70214 3374 ft 158 kts 101°
2026-05-07 15:46 57.21636 -4.67059 3243 ft 132 kts 158°
2026-05-07 15:46 57.20923 -4.66206 3183 ft 120 kts 154°
2026-05-07 15:46 57.20411 -4.64765 2716 ft 152 kts 121°
2026-05-07 15:47 57.20017 -4.63080 3003 ft 135 kts 147°
2026-05-07 15:47 57.19176 -4.62593 2752 ft 130 kts 199°
2026-05-07 15:47 57.18530 -4.63538 2737 ft 108 kts 229°
2026-05-07 15:47 57.18109 -4.64592 2659 ft 105 kts 229°
2026-05-07 15:48 57.17610 -4.65732 2271 ft 118 kts 224°
2026-05-07 15:48 57.17085 -4.66773 2185 ft 108 kts 225°
2026-05-07 15:48 57.16397 -4.67552 1537 ft 139 kts 178°
2026-05-07 15:48 57.15787 -4.66285 1181 ft 149 kts 100°
2026-05-07 15:49 57.16299 -4.64455 552 ft 180 kts 48°
2026-05-07 15:49 57.17224 -4.63072 748 ft 160 kts 37°
2026-05-07 15:49 57.18152 -4.61920 843 ft 161 kts 32°
2026-05-07 15:49 57.19058 -4.60930 1260 ft 149 kts 29°
2026-05-07 15:50 57.19956 -4.59966 1443 ft 142 kts 28°
2026-05-07 15:50 57.20755 -4.59089 1792 ft 134 kts 29°
2026-05-07 15:50 57.21578 -4.58079 1893 ft 145 kts 33°
2026-05-07 15:50 57.22394 -4.57089 2259 ft 141 kts 30°
2026-05-07 15:51 57.23305 -4.56169 2417 ft 152 kts 26°
2026-05-07 15:51 57.24184 -4.55240 2762 ft 144 kts 28°
2026-05-07 15:51 57.25095 -4.54378 2933 ft 150 kts 22°
2026-05-07 15:51 57.26006 -4.53437 3102 ft 155 kts 33°
2026-05-07 15:52 57.26906 -4.52197 3097 ft 167 kts 39°
2026-05-07 15:52 57.27864 -4.50825 2946 ft 177 kts 39°
2026-05-07 15:52 57.28787 -4.49459 3150 ft 164 kts 40°
2026-05-07 15:52 57.29718 -4.48141 3142 ft 173 kts 36°
2026-05-07 15:53 57.30731 -4.46931 3238 ft 170 kts 31°
2026-05-07 15:53 57.31707 -4.45741 3258 ft 171 kts 38°
2026-05-07 15:53 57.32618 -4.44302 3175 ft 171 kts 43°
2026-05-07 15:53 57.33512 -4.42814 3104 ft 175 kts 43°
2026-05-07 15:54 57.34417 -4.41301 3071 ft 175 kts 44°
2026-05-07 15:54 57.35248 -4.39658 3039 ft 175 kts 48°
2026-05-07 15:54 57.36209 -4.38269 2969 ft 177 kts 32°
2026-05-07 15:54 57.37276 -4.37194 2941 ft 172 kts 26°
2026-05-07 15:55 57.38360 -4.36214 2662 ft 172 kts 26°
2026-05-07 15:55 57.39195 -4.34578 1969 ft 182 kts 56°
2026-05-07 15:55 57.40020 -4.32934 1767 ft 167 kts 44°
2026-05-07 15:55 57.40930 -4.31622 1584 ft 164 kts 37°
2026-05-07 15:56 57.41827 -4.30412 1424 ft 157 kts 36°
2026-05-07 15:56 57.42625 -4.29072 1284 ft 150 kts 51°
2026-05-07 15:56 57.43204 -4.27516 1247 ft 146 kts 60°
2026-05-07 15:56 57.43759 -4.25939 1167 ft 142 kts 55°
2026-05-07 15:57 57.44378 -4.24619 1123 ft 127 kts 46°
2026-05-07 15:57 57.45005 -4.23643 852 ft 120 kts 26°
2026-05-07 15:57 57.45716 -4.23044 756 ft 104 kts 18°
2026-05-07 15:57 57.46360 -4.22454 729 ft 105 kts
2026-05-07 15:58 57.47080 -4.22336 788 ft 105 kts 351°
2026-05-07 15:58 57.47819 -4.22380 851 ft 106 kts 341°
2026-05-07 15:58 57.48540 -4.22388 872 ft 108 kts
2026-05-07 15:58 57.49238 -4.21843 1028 ft 107 kts 20°
2026-05-07 15:59 57.49834 -4.21002 1117 ft 107 kts 36°
2026-05-07 15:59 57.50305 -4.19899 1241 ft 111 kts 63°
2026-05-07 15:59 57.50463 -4.18514 1351 ft 110 kts 96°
2026-05-07 15:59 57.50475 -4.17139 1515 ft 105 kts 103°
2026-05-07 16:00 57.50465 -4.15803 1639 ft 104 kts 99°
2026-05-07 16:00 57.50534 -4.14487 1726 ft 108 kts 88°
2026-05-07 16:00 57.50783 -4.13132 1852 ft 112 kts 75°
2026-05-07 16:00 57.51014 -4.12250 1925 ft 116 kts 73°
2026-05-07 16:01 57.51141 -4.10788 2020 ft 114 kts 96°
2026-05-07 16:01 57.51261 -4.09302 2043 ft 119 kts 88°
2026-05-07 16:01 57.51495 -4.07832 2151 ft 120 kts 82°
2026-05-07 16:01 57.51787 -4.06359 2207 ft 121 kts 76°
2026-05-07 16:02 57.52135 -4.04907 2161 ft 125 kts 76°
2026-05-07 16:02 57.52496 -4.03433 2055 ft 120 kts 72°
2026-05-07 16:02 57.52896 -4.02071 1887 ft 124 kts 65°
2026-05-07 16:02 57.53367 -4.00750 1788 ft 121 kts 59°
2026-05-07 16:03 57.53904 -3.99523 1644 ft 121 kts 56°
2026-05-07 16:03 57.54383 -3.98268 1528 ft 119 kts 56°
2026-05-07 16:03 57.55113 -3.97638 1094 ft 127 kts 344°
2026-05-07 16:03 57.55751 -3.98394 977 ft 97 kts 306°
2026-05-07 16:04 57.56226 -3.99290 799 ft 98 kts 285°
2026-05-07 16:04 57.56212 -4.00408 675 ft 86 kts 232°
2026-05-07 16:04 57.55883 -4.01240 539 ft 78 kts 223°
2026-05-07 16:04 57.55522 -4.01977 397 ft 76 kts 226°
2026-05-07 16:05 57.55164 -4.02750 251 ft 81 kts 230°
2026-05-07 16:05 57.54805 -4.03540 84 ft 78 kts 228°
2026-05-07 16:05 57.54503 -4.04210 34 ft 51 kts 227°
2026-05-07 16:05 57.54349 -4.04540 31 ft 20 kts 229°
2026-05-07 16:06 57.54304 -4.04637 32 ft 3 kts 229°
2026-05-07 16:06 57.54286 -4.04674 32 ft 8 kts 229°
2026-05-07 16:06 57.54238 -4.04762 30 ft 10 kts 186°
2026-05-07 16:06 57.54217 -4.04677 30 ft 0 kts 147°
2026-05-07 16:07 57.54203 -4.04607 30 ft 13 kts 106°
2026-05-07 16:07 57.54166 -4.04427 30 ft 14 kts 108°
2026-05-07 16:07 57.54134 -4.04270 30 ft 9 kts 111°
2026-05-07 16:07 57.54108 -4.04174 30 ft 7 kts 141°
2026-05-07 16:08 57.54040 -4.04192 30 ft 12 kts 221°
2026-05-07 16:08 57.53990 -4.04286 29 ft 10 kts 229°
2026-05-07 16:08 57.53945 -4.04392 29 ft 10 kts 236°
2026-05-07 16:08 57.53937 -4.04445 29 ft 0 kts 259°